{"data":{"norad_id":64039,"intl_designator":"2025-102T","name":"STARLINK-34089","alt_names":[],"object_type":"PAYLOAD","status":"ACTIVE","operator":null,"country":"US","launch_date":"2025-05-16","launch_site_code":"AFWTR","launch_vehicle":null,"mission":null,"orbit_class":"UNKNOWN","rcs_meters":null,"size_class":null,"mass_kg":null,"dimensions":null,"purposes":["comms"],"wikipedia_slug":null,"has_3d_model":false,"image_url":null,"decayed_at":null,"tle_current":{"epoch":"2026-05-24T20:08:34.125504Z","epoch_age_seconds":82817,"freshness":"FRESH","line1":"1 64039U 25102T   26144.83928386  .00005341  00000+0  45484-3 0  9996","line2":"2 64039  70.0005 282.6485 0003003 266.1397  93.9419 14.98353110 57351","mean_motion":14.9835311,"eccentricity":0.0003003,"inclination_deg":70.0005,"raan_deg":282.6485,"arg_perigee_deg":266.1397,"mean_anomaly_deg":93.9419,"bstar":0.00045484,"rev_number":5735,"period_min":96.105516809719,"perigee_km":569.89730463006,"apogee_km":574.07154755857,"semimajor_km":6950.1214260943,"source":"CELESTRAK","updated_at":"2026-05-25T13:38:20.253258Z"}}}